Time,TemperatureF,DewpointF,PressureIn,WindDirection,WindDirectionDegrees,WindSpeedMPH,WindSpeedGustMPH,Humidity,HourlyPrecipIn,Conditions,Clouds,dailyrainin,SoftwareType,DateUTC
2013-03-31 00:03:00,35.6,24.6,30.06,East,90,0.0,-999.0,64,-99.99,,,0.00,Acu-Link.com,2013-03-31 07:03:00,
2013-03-31 00:18:00,33.8,24.4,30.05,East,90,0.0,-999.0,68,-99.99,,,0.00,Acu-Link.com,2013-03-31 07:18:00,
2013-03-31 00:34:00,33.8,23.7,30.05,East,90,0.0,-999.0,66,-99.99,,,0.00,Acu-Link.com,2013-03-31 07:34:00,
2013-03-31 00:49:00,33.8,24.0,30.05,East,90,0.0,-999.0,67,-99.99,,,0.00,Acu-Link.com,2013-03-31 07:49:00,
2013-03-31 01:04:00,32.0,23.7,30.05,East,90,0.0,-999.0,71,-99.99,,,0.00,Acu-Link.com,2013-03-31 08:04:00,
2013-03-31 01:19:00,32.0,23.7,30.05,East,90,0.0,-999.0,71,-99.99,,,0.00,Acu-Link.com,2013-03-31 08:19:00,
2013-03-31 01:35:00,32.0,24.0,30.05,East,90,0.0,-999.0,72,-99.99,,,0.00,Acu-Link.com,2013-03-31 08:35:00,
2013-03-31 01:50:00,32.0,24.0,30.05,East,90,0.0,-999.0,72,-99.99,,,0.00,Acu-Link.com,2013-03-31 08:50:00,
2013-03-31 02:05:00,32.0,24.3,30.05,East,90,0.0,-999.0,73,-99.99,,,0.00,Acu-Link.com,2013-03-31 09:05:00,
2013-03-31 02:20:00,30.2,23.6,30.05,ESE,112,0.0,-999.0,76,-99.99,,,0.00,Acu-Link.com,2013-03-31 09:20:00,
2013-03-31 02:35:00,30.2,23.9,30.05,East,90,0.0,-999.0,77,-99.99,,,0.00,Acu-Link.com,2013-03-31 09:35:00,
2013-03-31 02:50:00,30.2,23.9,30.05,East,90,0.0,-999.0,77,-99.99,,,0.00,Acu-Link.com,2013-03-31 09:50:00,
2013-03-31 03:06:00,30.2,23.9,30.05,East,90,0.0,-999.0,77,-99.99,,,0.00,Acu-Link.com,2013-03-31 10:06:00,
2013-03-31 03:21:00,28.4,23.0,30.05,East,90,0.0,-999.0,80,-99.99,,,0.00,Acu-Link.com,2013-03-31 10:21:00,
2013-03-31 03:36:00,28.4,23.6,30.05,East,90,0.0,-999.0,82,-99.99,,,0.00,Acu-Link.com,2013-03-31 10:36:00,
2013-03-31 03:51:00,28.4,23.3,30.05,East,90,0.0,-999.0,81,-99.99,,,0.00,Acu-Link.com,2013-03-31 10:51:00,
2013-03-31 04:21:00,28.4,22.7,30.05,ESE,112,0.0,-999.0,79,-99.99,,,0.00,Acu-Link.com,2013-03-31 11:21:00,
2013-03-31 04:37:00,28.4,23.3,30.05,East,90,0.0,-999.0,81,-99.99,,,0.00,Acu-Link.com,2013-03-31 11:37:00,
2013-03-31 04:52:00,28.4,23.9,30.05,ESE,112,0.0,-999.0,83,-99.99,,,0.00,Acu-Link.com,2013-03-31 11:52:00,
2013-03-31 05:07:00,28.4,23.9,30.05,East,90,0.0,-999.0,83,-99.99,,,0.00,Acu-Link.com,2013-03-31 12:07:00,
2013-03-31 05:22:00,28.4,23.9,30.05,East,90,0.0,-999.0,83,-99.99,,,0.00,Acu-Link.com,2013-03-31 12:22:00,
2013-03-31 05:37:00,28.4,23.9,30.06,East,90,0.0,-999.0,83,-99.99,,,0.00,Acu-Link.com,2013-03-31 12:37:00,
2013-03-31 05:52:00,28.4,24.2,30.06,ESE,112,0.0,-999.0,84,-99.99,,,0.00,Acu-Link.com,2013-03-31 12:52:00,
2013-03-31 06:08:00,26.6,22.4,30.06,ESE,112,0.0,-999.0,84,-99.99,,,0.00,Acu-Link.com,2013-03-31 13:08:00,
2013-03-31 06:23:00,26.6,22.7,30.06,ESE,112,0.0,-999.0,85,-99.99,,,0.00,Acu-Link.com,2013-03-31 13:23:00,
2013-03-31 06:38:00,26.6,22.7,30.06,ESE,112,0.0,-999.0,85,-99.99,,,0.00,Acu-Link.com,2013-03-31 13:38:00,
2013-03-31 06:53:00,26.6,21.9,30.06,ESE,112,0.0,-999.0,82,-99.99,,,0.00,Acu-Link.com,2013-03-31 13:53:00,
2013-03-31 07:08:00,26.6,22.4,30.06,East,90,0.0,-999.0,84,-99.99,,,0.00,Acu-Link.com,2013-03-31 14:08:00,
2013-03-31 07:24:00,26.6,22.7,30.07,East,90,0.0,-999.0,85,-99.99,,,0.00,Acu-Link.com,2013-03-31 14:24:00,
2013-03-31 07:39:00,26.6,22.7,30.06,East,90,0.0,-999.0,85,-99.99,,,0.00,Acu-Link.com,2013-03-31 14:39:00,
2013-03-31 07:54:00,28.4,24.5,30.06,ESE,112,0.0,-999.0,85,-99.99,,,0.00,Acu-Link.com,2013-03-31 14:54:00,
2013-03-31 08:09:00,28.4,23.9,30.06,ESE,112,0.0,-999.0,83,-99.99,,,0.00,Acu-Link.com,2013-03-31 15:09:00,
2013-03-31 08:24:00,30.2,26.2,30.06,ESE,112,0.0,-999.0,85,-99.99,,,0.00,Acu-Link.com,2013-03-31 15:24:00,
2013-03-31 08:40:00,32.0,25.0,30.06,East,90,0.0,-999.0,75,-99.99,,,0.00,Acu-Link.com,2013-03-31 15:40:00,
2013-03-31 08:55:00,33.8,26.1,30.06,SSE,157,0.0,-999.0,73,-99.99,,,0.00,Acu-Link.com,2013-03-31 15:55:00,
2013-03-31 09:10:00,35.6,26.1,30.06,NW,315,0.0,-999.0,68,-99.99,,,0.00,Acu-Link.com,2013-03-31 16:10:00,
2013-03-31 09:25:00,39.2,26.9,30.06,SSE,157,0.0,-999.0,61,-99.99,,,0.00,Acu-Link.com,2013-03-31 16:25:00,
2013-03-31 09:40:00,41.0,28.6,30.06,West,270,2.7,-999.0,61,-99.99,,,0.00,Acu-Link.com,2013-03-31 16:40:00,
2013-03-31 10:26:00,46.4,28.3,30.05,West,270,2.0,-999.0,49,-99.99,,,0.00,Acu-Link.com,2013-03-31 17:26:00,
2013-03-31 10:57:00,50.0,29.5,30.06,SSW,202,1.6,-999.0,45,-99.99,,,0.00,Acu-Link.com,2013-03-31 17:57:00,
2013-03-31 11:12:00,51.8,30.0,30.05,West,270,2.7,-999.0,43,-99.99,,,0.00,Acu-Link.com,2013-03-31 18:12:00,
2013-03-31 11:27:00,51.8,29.4,30.06,ENE,67,2.0,-999.0,42,-99.99,,,0.00,Acu-Link.com,2013-03-31 18:27:00,
2013-03-31 11:42:00,51.8,29.4,30.06,SSE,157,2.0,-999.0,42,-99.99,,,0.00,Acu-Link.com,2013-03-31 18:42:00,
2013-03-31 11:57:00,53.6,29.3,30.05,NNW,337,1.6,-999.0,39,-99.99,,,0.00,Acu-Link.com,2013-03-31 18:57:00,
2013-03-31 12:13:00,53.6,29.3,30.05,West,270,4.7,-999.0,39,-99.99,,,0.00,Acu-Link.com,2013-03-31 19:13:00,
2013-03-31 12:28:00,53.6,28.6,30.05,ESE,112,2.7,-999.0,38,-99.99,,,0.00,Acu-Link.com,2013-03-31 19:28:00,
2013-03-31 12:43:00,55.4,30.9,30.04,WSW,247,2.7,-999.0,39,-99.99,,,0.00,Acu-Link.com,2013-03-31 19:43:00,
2013-03-31 12:58:00,55.4,31.5,30.04,NW,315,3.6,-999.0,40,-99.99,,,0.00,Acu-Link.com,2013-03-31 19:58:00,
2013-03-31 13:14:00,55.4,31.5,30.03,WSW,247,1.6,-999.0,40,-99.99,,,0.00,Acu-Link.com,2013-03-31 20:14:00,
2013-03-31 13:29:00,55.4,30.2,30.03,ENE,67,2.7,-999.0,38,-99.99,,,0.00,Acu-Link.com,2013-03-31 20:29:00,
2013-03-31 13:59:00,57.2,31.8,30.02,West,270,3.1,-999.0,38,-99.99,,,0.00,Acu-Link.com,2013-03-31 20:59:00,
2013-03-31 14:15:00,59.0,34.1,30.01,South,180,1.1,-999.0,39,-99.99,,,0.00,Acu-Link.com,2013-03-31 21:15:00,
2013-03-31 14:30:00,59.0,32.8,30.01,ESE,112,1.1,-999.0,37,-99.99,,,0.00,Acu-Link.com,2013-03-31 21:30:00,
2013-03-31 14:45:00,59.0,32.1,30.01,NE,45,2.0,-999.0,36,-99.99,,,0.00,Acu-Link.com,2013-03-31 21:45:00,
2013-03-31 15:00:00,59.0,32.1,30.00,South,180,0.0,-999.0,36,-99.99,,,0.00,Acu-Link.com,2013-03-31 22:00:00,
2013-03-31 15:15:00,59.0,33.4,29.99,SW,225,2.0,-999.0,38,-99.99,,,0.00,Acu-Link.com,2013-03-31 22:15:00,
2013-03-31 15:30:00,59.0,32.8,29.99,ESE,112,2.0,-999.0,37,-99.99,,,0.00,Acu-Link.com,2013-03-31 22:30:00,
2013-03-31 16:01:00,59.0,32.1,29.98,South,180,1.6,-999.0,36,-99.99,,,0.00,Acu-Link.com,2013-03-31 23:01:00,
2013-03-31 16:16:00,59.0,31.4,29.97,SE,135,1.1,-999.0,35,-99.99,,,0.00,Acu-Link.com,2013-03-31 23:16:00,
2013-03-31 16:47:00,59.0,31.4,29.96,West,270,0.0,-999.0,35,-99.99,,,0.00,Acu-Link.com,2013-03-31 23:47:00,
2013-03-31 17:02:00,57.2,30.5,29.96,SE,135,0.0,-999.0,36,-99.99,,,0.00,Acu-Link.com,2013-04-01 00:02:00,
2013-03-31 17:17:00,57.2,28.4,29.95,ENE,67,1.1,-999.0,33,-99.99,,,0.00,Acu-Link.com,2013-04-01 00:17:00,
2013-03-31 17:32:00,55.4,28.9,29.95,North,0,0.0,-999.0,36,-99.99,,,0.00,Acu-Link.com,2013-04-01 00:32:00,
2013-03-31 17:47:00,55.4,28.9,29.94,ESE,112,0.0,-999.0,36,-99.99,,,0.00,Acu-Link.com,2013-04-01 00:47:00,
2013-03-31 18:03:00,55.4,30.2,29.94,ENE,67,0.0,-999.0,38,-99.99,,,0.00,Acu-Link.com,2013-04-01 01:03:00,
2013-03-31 18:18:00,53.6,27.3,29.93,NW,315,2.0,-999.0,36,-99.99,,,0.00,Acu-Link.com,2013-04-01 01:18:00,
2013-03-31 18:33:00,53.6,29.3,29.93,West,270,0.0,-999.0,39,-99.99,,,0.00,Acu-Link.com,2013-04-01 01:33:00,
2013-03-31 18:48:00,51.8,28.3,29.93,East,90,0.0,-999.0,40,-99.99,,,0.00,Acu-Link.com,2013-04-01 01:48:00,
2013-03-31 19:03:00,50.0,27.8,29.93,NE,45,0.0,-999.0,42,-99.99,,,0.00,Acu-Link.com,2013-04-01 02:03:00,
2013-03-31 19:18:00,50.0,28.4,29.92,NE,45,0.0,-999.0,43,-99.99,,,0.00,Acu-Link.com,2013-04-01 02:18:00,
2013-03-31 19:34:00,48.2,27.3,29.92,NE,45,0.0,-999.0,44,-99.99,,,0.00,Acu-Link.com,2013-04-01 02:34:00,
2013-03-31 19:49:00,46.4,26.2,29.92,NNE,22,0.0,-999.0,45,-99.99,,,0.00,Acu-Link.com,2013-04-01 02:49:00,
2013-03-31 20:04:00,46.4,27.3,29.92,NNE,22,0.0,-999.0,47,-99.99,,,0.00,Acu-Link.com,2013-04-01 03:04:00,
2013-03-31 20:19:00,44.6,26.1,29.92,North,0,0.0,-999.0,48,-99.99,,,0.00,Acu-Link.com,2013-04-01 03:19:00,
2013-03-31 20:50:00,42.8,26.9,29.92,NNE,22,0.0,-999.0,53,-99.99,,,0.00,Acu-Link.com,2013-04-01 03:50:00,
2013-03-31 21:05:00,41.0,27.4,29.92,NNE,22,0.0,-999.0,58,-99.99,,,0.00,Acu-Link.com,2013-04-01 04:05:00,
2013-03-31 21:20:00,41.0,26.9,29.92,North,0,0.0,-999.0,57,-99.99,,,0.00,Acu-Link.com,2013-04-01 04:20:00,
2013-03-31 22:07:00,37.4,26.4,29.92,ENE,67,0.0,-999.0,64,-99.99,,,0.00,Acu-Link.com,2013-04-01 05:07:00,
2013-03-31 22:22:00,35.6,26.1,29.92,ENE,67,0.0,-999.0,68,-99.99,,,0.00,Acu-Link.com,2013-04-01 05:22:00,
2013-03-31 22:37:00,35.6,26.5,29.92,ENE,67,0.0,-999.0,69,-99.99,,,0.00,Acu-Link.com,2013-04-01 05:37:00,
2013-03-31 22:52:00,33.8,25.4,29.92,ENE,67,0.0,-999.0,71,-99.99,,,0.00,Acu-Link.com,2013-04-01 05:52:00,
2013-03-31 23:07:00,33.8,25.7,29.92,ENE,67,0.0,-999.0,72,-99.99,,,0.00,Acu-Link.com,2013-04-01 06:07:00,
2013-03-31 23:23:00,33.8,26.1,29.92,ENE,67,0.0,-999.0,73,-99.99,,,0.00,Acu-Link.com,2013-04-01 06:23:00,
2013-03-31 23:38:00,32.0,24.7,29.92,ENE,67,0.0,-999.0,74,-99.99,,,0.00,Acu-Link.com,2013-04-01 06:38:00,
2013-03-31 23:53:00,32.0,25.3,29.92,ENE,67,0.0,-999.0,76,-99.99,,,0.00,Acu-Link.com,2013-04-01 06:53:00,